SCP
0 0 0 0 0 0 0 0 0 0 0 0 0 0 0 0 0 0 0 0 0 0 0 0 0 0 0 0 0 0 0 0 0 0 0 0 0 0 0 0 0 0 0
0 0 0 0 0 0 0 0 0 0 0 0 0 0 0 0 0 0 0 0 0 0 0 0 0 0 0 0 0 0 0 0 0 0 0 0 0 0 0 0 0 0 0
0 0 0 0 0 0 0 0 0 0 0 0 0 0 0 0 0 0 0 0 0 0 0 0 0 0 0 0 0 0 0 0 0 0 0 0 0 0 0 0 0 0 0
0 0 0 0 0 0 0 0 0 0 0 0 0 0 0 0 0 0 0 0 0 0 0 0 0 0 0 0 0 0 0 0 0 0 0 0 0 0 0 0 0 0 0
0 0 0 0 0 0 0 0 0 0 0 0 0 0 0 0 0 0 0 0 0 0 0 0 0 0 0 0 0 0 0 0 0 0 0 0 0 0 0 0 0 0 0
0 0 0 0 0 0 0 0 0 0 0 0 0 0 0 0 0 0 0 0 0 0 0 0 0 0 0 0 0 0 0 0 0 0 0 0 0 0 0 0 0 0 0
0 0 0 0 0 0 0 0 0 0 0 0 0 0 0 0 0 0 0 0 0 0 0 0 0 0 0 0 0 0 0 0 0 0 0 0 0 0 0 0 0 0 0
-0 0 0 0 0 0 0 0 0 0 0 0 0 0 0 0 0 0 0 0 0 0 0 0 0 0 0 0 0 0 0 0 0 0 0 0 0 0 0 0 0 0 0
0 0 0 0 0 0 0 0 0 0 0 0 0 0 0 0 0 0 0 0 0 0 0 0 0 0 0 0 0 0 0 0 0 0 0 0 0 0 0 0 0 0 0
0 0 0 0 0 0 0 0 0 0 0 0 0 0 0 0 0 0 0 0 0 0 0 0 0 0 0 0 0 0 0 0 0 0 0 0 0 0 0 0 0 0 0
0 0 0 0 0 0 0 0 0 0 0 0 0 0 0 0 0 0 0 0 0 0 0 0 0 0 0 0 0 0 0 0 0 0 0 0 0 0 0 0 0 0 0
0 0 0 0 0 0 0 0 0 0 0 0 0 0 0 0 0 0 0 0 0 0 0 0 0 0 0 0 0 0 0 0 0 0 0 0 0 0 0 0 0 0 0
0 0 0 0 0 0 0 0 0 0 0 0 0 0 0 0 0 0 0 0 0 0 0 0 0 0 0 0 0 0 0 0 0 0 0 0 0 0 0 0 0 0 0
0 0 0 0 0 0 0 0 0 0 0 0 0 0 0 0 0 0 0 0 0 0 0 0 0 0 0 0 0 0 0 0 0 0 0 0 0 0 0 0 0 0 0
0 0 0 0 0 0 0 0 0 0 0 0 0 0 0 0 0 0 0 0 0 0 0 0 0 0 0 0 0 0 0 0 0 0 0 0 0 0 0 0 0 0 0
0 0 0 0 0 0 0 0 0 0 0 0 0 0 0 0 0 0 0 0 0 0 0 0 0 0 0 0 0 0 0 0 0 0 0 0 0 0 0 0 0 0 0
0 0 0 0 0 0 0 0 0 0 0 0 0 0 0 0 0 0 0 0 0 0 0 0 0 0 0 0 0 0 0 0 0 0 0 0 0 0 0 0 0 0 0
0 0 0 0 0 0 0 0 0 0 0 0 0 0 0 0 0 0 0 0 0 0 0 0 0 0 0 0 0 0 0 0 0 0 0 0 0 0 0 0 0 0 0
0 0 0 0 0 0 0 0 0 0 0 0 0 0 0 0 0 0 0 0 0 0 0 0 0 0 0 0 0 0 0 0 0 0 0 0 0 0 0 0 0 0 0
0 0 0 0 0 0 0 0 0 0 0 0 0 0 0 0 0 0 0 0 0 0 0 0 0 0 0 0 0 0 0 0 0 0 0 0 0 0 0 0 0 0 0
-0 -0 -0 -0 -0 -0 0 0 0 0 0 -0 -0 -0 -0 -0 -0 0 0 0 0 0 0 0 0 0 0 0 0 0 0 0 0 0 0 0 0 0 0 0 0 0 0
-0 -0 -0 -0 0 0 0 0 0 0 0 0 0 0 0 0 0 0 0 0 0 0 0 0 0 0 0 0 0 0 0 0 0 0 0 0 0 0 0 0 0 0 0
0 0 0 0 0 0 0 0 0 0 0 0 0 0 0 0 0 0 0 0 0 0 0 0 0 0 0 0 0 0 0 0 0 0 0 0 0 0 0 0 0 0 0
0 0 0 0 0 0 0 0 0 0 0 0 0 0 0 0 0 0 0 0 0 0 0 0 0 0 0 0 0 0 0 0 0 0 0 0 0 0 0 0 0 0 0
0 0 0 0 0 0 0 0 0 0 0 0 0 0 0 0 0 0 0 0 0 0 0 0 0 0 0 0 0 0 0 0 0 0 0 0 0 0 0 0 0 0 0
0 0 0 0 0 0 0 0 0 0 0 0 0 0 0 0 0 0 0 0 0 0 0 0 0 0 0 0 0 0 0 0 0 0 0 0 0 0 0 0 0 0 0
Wind_Speed_500mb
28 23 21 14 20 27 35 36 21 27 28 28 34 29 22 20 20 23 28 31 25 19 14 11 12 12 10 9 13 13 11 11 14 13 15 15 13 13 15 17 21 25 27
40 39 42 45 41 40 40 35 32 29 26 29 19 14 11 7 11 15 17 18 12 4 4 7 7 6 6 7 5 6 5 5 6 7 8 7 9 12 16 21 24 26 28
32 36 38 37 33 28 29 27 21 23 17 14 9 11 13 13 7 6 4 6 10 11 7 5 7 6 3 1 2 2 3 2 3 3 5 6 10 15 20 23 26 28 29
21 22 23 23 21 16 14 11 13 10 8 5 7 7 3 2 6 10 11 14 5 7 9 11 7 4 4 5 4 5 6 7 8 8 9 9 13 18 23 25 26 28 28
6 7 7 9 9 7 12 10 6 2 1 4 7 9 11 14 16 12 11 8 11 14 15 9 8 8 6 6 8 8 9 10 10 11 13 16 19 22 25 28 30 30 30
16 14 12 15 17 19 16 8 7 9 10 13 13 12 11 11 12 13 14 15 16 14 12 11 8 5 5 5 5 7 8 9 11 13 16 19 22 25 28 31 33 33 28
21 23 21 21 21 21 17 15 15 14 15 16 18 19 19 19 18 16 16 13 12 12 11 9 7 5 4 2 4 6 9 13 16 20 22 25 27 29 32 33 34 34 34
22 26 23 23 21 21 19 18 15 14 14 16 16 16 14 15 15 14 14 12 11 10 9 7 5 4 3 6 7 11 14 18 21 23 25 27 31 33 35 36 36 36 36
23 23 23 23 20 19 16 15 15 13 12 13 15 15 16 15 15 14 14 11 9 7 6 6 3 3 5 9 11 14 18 22 25 27 30 32 34 36 38 38 38 40 42
22 20 21 21 18 17 16 13 14 14 13 13 12 13 14 13 13 11 10 7 5 3 2 1 2 4 8 12 16 20 23 26 29 32 34 37 38 38 40 40 40 40 42
18 17 17 17 15 13 12 11 10 9 8 7 8 8 9 10 9 7 6 6 5 5 5 5 7 9 12 17 21 25 28 32 35 37 39 40 39 39 40 42 43 42 44
15 15 13 11 10 9 8 7 6 3 3 4 5 6 6 7 7 8 9 9 9 10 10 12 14 16 21 24 28 32 35 37 39 40 43 45 45 43 43 43 46 46 48
10 9 7 6 6 6 5 4 4 4 4 5 8 9 10 10 11 13 14 14 16 16 17 18 20 23 26 30 34 39 41 42 44 46 46 48 50 48 45 45 48 50 52
2 3 2 3 5 6 7 7 8 11 12 13 15 19 18 17 18 22 22 22 24 25 26 24 25 28 32 37 38 40 44 47 49 49 50 51 52 51 49 52 52 54 55
12 11 9 9 10 10 9 10 11 12 13 15 17 19 21 21 24 28 29 30 31 33 33 33 34 36 38 41 42 43 46 49 51 52 54 56 55 55 52 53 55 58 58
11 15 20 24 25 23 21 21 20 19 19 18 18 21 24 27 28 31 37 41 42 42 41 38 38 39 40 43 47 47 48 51 53 57 58 58 57 57 56 54 57 59 61
23 23 24 24 26 31 34 35 32 28 26 26 28 31 35 37 43 46 45 43 41 43 47 41 43 43 45 47 50 54 58 56 60 61 62 61 60 59 58 57 56 58 60
37 37 38 38 38 38 39 41 43 43 38 29 35 38 40 46 49 48 43 44 46 45 49 49 50 50 51 55 58 62 63 64 64 64 64 61 59 60 61 61 59 61 61
43 43 42 43 43 43 44 43 44 45 41 37 37 40 48 54 55 46 42 46 48 48 49 52 53 56 59 62 64 66 67 66 64 62 60 59 57 58 59 58 58 58 60
42 43 42 43 43 44 43 42 42 43 45 45 46 47 51 53 50 48 47 49 52 55 56 59 60 63 65 67 67 68 69 66 63 60 59 56 53 54 55 55 55 57 55
34 36 38 37 38 40 42 44 44 46 47 48 48 48 52 55 50 50 50 51 55 58 59 62 63 64 64 64 64 63 62 60 55 54 53 52 52 52 51 52 53 53 54
34 32 31 31 33 35 38 41 43 46 47 49 48 47 50 52 55 54 54 53 53 55 58 60 60 60 59 59 58 58 57 54 50 50 51 50 50 50 50 50 51 52 53
33 33 31 30 30 31 32 34 36 38 40 42 44 43 45 47 49 51 52 52 53 53 54 56 56 53 52 52 53 53 52 49 48 48 47 47 46 47 49 50 50 50 50
28 28 28 27 26 27 29 30 32 33 34 36 38 39 40 41 43 45 47 47 48 47 48 49 50 50 48 45 45 47 48 48 48 46 48 48 48 47 48 50 49 49 50
23 25 25 24 23 24 25 27 29 31 32 33 34 35 36 37 38 39 40 42 42 42 42 42 43 44 44 43 42 41 43 45 46 47 48 50 50 50 50 50 49 49 49
23 22 22 21 21 21 21 22 23 24 26 27 29 30 31 32 34 35 36 37 37 37 37 37 38 39 39 39 40 40 40 41 42 43 45 46 48 47 48 48 48 49 48
Wind_Direction_500mb
112 114 126 127 163 165 176 163 203 181 175 199 196 194 209 216 211 236 249 254 228 202 182 219 232 238 239 247 258 264 254 246 249 261 264 263 267 276 279 293 303 306 309
99 109 106 105 108 101 99 106 102 102 89 91 90 100 116 85 212 208 186 168 149 137 276 223 223 229 256 260 261 280 287 295 282 274 264 269 278 284 301 303 304 307 308
96 98 104 101 95 90 86 82 86 86 81 75 84 91 86 84 84 89 143 160 162 170 201 214 208 179 200 141 354 352 48 5 6 343 325 306 304 306 306 305 306 309 310
95 89 85 85 84 85 83 69 40 13 340 273 252 262 259 248 238 185 167 159 178 189 187 168 161 143 114 89 69 42 26 18 18 5 347 326 314 310 308 309 311 312 311
82 63 49 46 42 57 88 90 100 50 319 204 197 192 173 164 159 163 170 166 173 168 159 164 153 122 101 70 43 22 17 8 5 353 342 333 325 319 314 313 313 314 314
63 64 60 67 76 73 67 69 111 143 146 141 148 157 144 139 136 150 144 146 150 154 149 134 123 108 79 46 19 4 353 352 348 343 336 329 323 318 316 313 314 315 318
83 88 85 85 87 90 96 104 107 117 119 117 111 110 122 123 121 124 126 130 128 126 123 122 118 111 93 50 9 348 351 347 345 340 335 329 324 320 316 313 314 314 312
80 84 86 81 81 84 87 92 106 111 113 110 114 119 122 119 120 121 121 128 136 139 136 129 114 82 40 14 359 351 344 339 337 332 329 326 323 319 313 312 310 309 310
80 82 83 80 80 82 85 95 102 100 100 103 111 117 118 125 129 132 127 136 141 140 137 128 97 47 9 346 340 332 331 329 330 330 328 324 320 317 314 311 310 308 309
77 80 82 82 81 82 85 94 101 103 102 108 110 113 121 133 135 137 137 140 147 156 146 132 345 320 324 322 326 326 329 326 323 321 322 321 320 316 312 308 305 306 309
79 75 76 81 82 86 85 78 82 81 90 100 106 123 139 148 160 163 177 195 210 226 265 279 290 304 310 319 320 320 320 318 318 317 319 318 315 312 307 305 303 304 304
75 77 74 76 77 72 68 65 57 76 122 131 149 176 182 203 215 229 235 244 253 266 279 287 297 304 311 313 313 312 315 314 313 316 317 316 312 310 307 305 303 302 301
75 73 60 47 36 22 7 350 305 282 250 233 226 226 237 244 251 257 257 264 269 273 276 283 292 300 303 305 308 312 312 310 312 313 314 312 310 307 304 303 301 300 298
86 76 27 355 344 325 307 285 278 272 272 272 265 261 266 275 275 268 268 270 272 274 275 283 293 297 299 300 303 304 304 306 310 311 311 310 309 306 303 299 299 296 295
261 262 270 278 281 289 294 285 279 280 285 285 285 287 287 286 281 281 280 278 280 282 284 290 294 294 295 296 298 300 302 304 307 308 309 310 309 305 302 298 297 296 297
297 279 271 270 270 271 275 278 279 282 287 289 294 297 298 298 296 293 286 281 278 280 281 285 289 293 293 293 295 297 299 302 304 305 306 306 305 303 301 299 296 296 297
295 296 297 298 292 282 275 271 263 268 266 271 284 293 298 300 294 289 285 280 275 278 282 285 289 289 291 292 293 296 300 302 301 303 303 303 302 301 300 299 299 298 298
284 285 285 284 282 281 279 276 275 273 271 280 295 297 300 298 295 291 284 278 277 278 282 286 287 288 289 292 296 299 301 301 302 303 302 302 301 299 298 298 297 298 299
286 285 282 280 278 277 276 276 276 275 270 283 285 286 287 286 284 282 277 277 278 277 278 280 284 288 291 295 299 301 302 303 304 303 302 301 301 298 297 297 297 297 298
288 288 286 283 280 279 279 278 276 276 272 270 272 274 275 277 279 280 279 279 281 283 284 285 289 292 296 299 302 303 302 303 304 303 301 300 298 295 296 297 297 297 299
297 294 292 290 287 283 281 280 276 273 273 274 276 278 282 283 283 283 281 282 283 284 287 289 292 296 298 299 298 297 297 299 299 298 297 296 296 296 296 297 298 301 302
300 298 295 293 290 289 288 286 283 280 277 278 280 282 283 286 288 291 292 292 290 290 290 291 292 294 295 295 296 297 298 300 300 298 299 299 298 298 299 299 300 300 300
307 305 302 297 294 291 290 291 290 288 286 287 288 288 287 287 288 289 290 291 292 292 294 296 298 299 300 301 302 304 306 307 305 303 302 300 300 300 299 299 300 300 300
306 307 305 303 299 297 294 292 290 290 289 289 290 292 293 294 296 298 300 302 302 303 303 304 305 308 309 309 307 306 305 305 304 304 302 301 301 301 300 300 300 300 300
314 315 314 314 314 313 312 311 310 310 309 309 309 308 307 306 306 307 307 308 309 311 311 311 311 310 310 309 307 304 303 302 302 302 300 301 301 300 300 300 301 301 303
317 320 323 326 327 325 322 319 316 315 315 316 317 318 318 318 318 318 317 318 318 317 317 316 315 315 315 314 314 313 312 309 308 306 304 305 304 303 304 304 304 304 303
Wind_Speed_850mb
28 23 21 14 20 27 35 36 21 27 28 28 34 29 22 20 20 23 28 31 25 19 14 11 12 12 10 9 13 13 11 11 14 13 15 15 13 13 15 17 21 25 27
40 39 42 45 41 40 40 35 32 29 26 29 19 14 11 7 11 15 17 18 12 4 4 7 7 6 6 7 5 6 5 5 6 7 8 7 9 12 16 21 24 26 28
32 36 38 37 33 28 29 27 21 23 17 14 9 11 13 13 7 6 4 6 10 11 7 5 7 6 3 1 2 2 3 2 3 3 5 6 10 15 20 23 26 28 29
21 22 23 23 21 16 14 11 13 10 8 5 7 7 3 2 6 10 11 14 5 7 9 11 7 4 4 5 4 5 6 7 8 8 9 9 13 18 23 25 26 28 28
6 7 7 9 9 7 12 10 6 2 1 4 7 9 11 14 16 12 11 8 11 14 15 9 8 8 6 6 8 8 9 10 10 11 13 16 19 22 25 28 30 30 30
16 14 12 15 17 19 16 8 7 9 10 13 13 12 11 11 12 13 14 15 16 14 12 11 8 5 5 5 5 7 8 9 11 13 16 19 22 25 28 31 33 33 28
21 23 21 21 21 21 17 15 15 14 15 16 18 19 19 19 18 16 16 13 12 12 11 9 7 5 4 2 4 6 9 13 16 20 22 25 27 29 32 33 34 34 34
22 26 23 23 21 21 19 18 15 14 14 16 16 16 14 15 15 14 14 12 11 10 9 7 5 4 3 6 7 11 14 18 21 23 25 27 31 33 35 36 36 36 36
23 23 23 23 20 19 16 15 15 13 12 13 15 15 16 15 15 14 14 11 9 7 6 6 3 3 5 9 11 14 18 22 25 27 30 32 34 36 38 38 38 40 42
22 20 21 21 18 17 16 13 14 14 13 13 12 13 14 13 13 11 10 7 5 3 2 1 2 4 8 12 16 20 23 26 29 32 34 37 38 38 40 40 40 40 42
18 17 17 17 15 13 12 11 10 9 8 7 8 8 9 10 9 7 6 6 5 5 5 5 7 9 12 17 21 25 28 32 35 37 39 40 39 39 40 42 43 42 44
15 15 13 11 10 9 8 7 6 3 3 4 5 6 6 7 7 8 9 9 9 10 10 12 14 16 21 24 28 32 35 37 39 40 43 45 45 43 43 43 46 46 48
10 9 7 6 6 6 5 4 4 4 4 5 8 9 10 10 11 13 14 14 16 16 17 18 20 23 26 30 34 39 41 42 44 46 46 48 50 48 45 45 48 50 52
2 3 2 3 5 6 7 7 8 11 12 13 15 19 18 17 18 22 22 22 24 25 26 24 25 28 32 37 38 40 44 47 49 49 50 51 52 51 49 52 52 54 55
12 11 9 9 10 10 9 10 11 12 13 15 17 19 21 21 24 28 29 30 31 33 33 33 34 36 38 41 42 43 46 49 51 52 54 56 55 55 52 53 55 58 58
11 15 20 24 25 23 21 21 20 19 19 18 18 21 24 27 28 31 37 41 42 42 41 38 38 39 40 43 47 47 48 51 53 57 58 58 57 57 56 54 57 59 61
23 23 24 24 26 31 34 35 32 28 26 26 28 31 35 37 43 46 45 43 41 43 47 41 43 43 45 47 50 54 58 56 60 61 62 61 60 59 58 57 56 58 60
37 37 38 38 38 38 39 41 43 43 38 29 35 38 40 46 49 48 43 44 46 45 49 49 50 50 51 55 58 62 63 64 64 64 64 61 59 60 61 61 59 61 61
43 43 42 43 43 43 44 43 44 45 41 37 37 40 48 54 55 46 42 46 48 48 49 52 53 56 59 62 64 66 67 66 64 62 60 59 57 58 59 58 58 58 60
42 43 42 43 43 44 43 42 42 43 45 45 46 47 51 53 50 48 47 49 52 55 56 59 60 63 65 67 67 68 69 66 63 60 59 56 53 54 55 55 55 57 55
34 36 38 37 38 40 42 44 44 46 47 48 48 48 52 55 50 50 50 51 55 58 59 62 63 64 64 64 64 63 62 60 55 54 53 52 52 52 51 52 53 53 54
34 32 31 31 33 35 38 41 43 46 47 49 48 47 50 52 55 54 54 53 53 55 58 60 60 60 59 59 58 58 57 54 50 50 51 50 50 50 50 50 51 52 53
33 33 31 30 30 31 32 34 36 38 40 42 44 43 45 47 49 51 52 52 53 53 54 56 56 53 52 52 53 53 52 49 48 48 47 47 46 47 49 50 50 50 50
28 28 28 27 26 27 29 30 32 33 34 36 38 39 40 41 43 45 47 47 48 47 48 49 50 50 48 45 45 47 48 48 48 46 48 48 48 47 48 50 49 49 50
23 25 25 24 23 24 25 27 29 31 32 33 34 35 36 37 38 39 40 42 42 42 42 42 43 44 44 43 42 41 43 45 46 47 48 50 50 50 50 50 49 49 49
23 22 22 21 21 21 21 22 23 24 26 27 29 30 31 32 34 35 36 37 37 37 37 37 38 39 39 39 40 40 40 41 42 43 45 46 48 47 48 48 48 49 48
Wind_Direction_850mb
112 114 126 127 163 165 176 163 203 181 175 199 196 194 209 216 211 236 249 254 228 202 182 219 232 238 239 247 258 264 254 246 249 261 264 263 267 276 279 293 303 306 309
99 109 106 105 108 101 99 106 102 102 89 91 90 100 116 85 212 208 186 168 149 137 276 223 223 229 256 260 261 280 287 295 282 274 264 269 278 284 301 303 304 307 308
96 98 104 101 95 90 86 82 86 86 81 75 84 91 86 84 84 89 143 160 162 170 201 214 208 179 200 141 354 352 48 5 6 343 325 306 304 306 306 305 306 309 310
95 89 85 85 84 85 83 69 40 13 340 273 252 262 259 248 238 185 167 159 178 189 187 168 161 143 114 89 69 42 26 18 18 5 347 326 314 310 308 309 311 312 311
82 63 49 46 42 57 88 90 100 50 319 204 197 192 173 164 159 163 170 166 173 168 159 164 153 122 101 70 43 22 17 8 5 353 342 333 325 319 314 313 313 314 314
63 64 60 67 76 73 67 69 111 143 146 141 148 157 144 139 136 150 144 146 150 154 149 134 123 108 79 46 19 4 353 352 348 343 336 329 323 318 316 313 314 315 318
83 88 85 85 87 90 96 104 107 117 119 117 111 110 122 123 121 124 126 130 128 126 123 122 118 111 93 50 9 348 351 347 345 340 335 329 324 320 316 313 314 314 312
80 84 86 81 81 84 87 92 106 111 113 110 114 119 122 119 120 121 121 128 136 139 136 129 114 82 40 14 359 351 344 339 337 332 329 326 323 319 313 312 310 309 310
80 82 83 80 80 82 85 95 102 100 100 103 111 117 118 125 129 132 127 136 141 140 137 128 97 47 9 346 340 332 331 329 330 330 328 324 320 317 314 311 310 308 309
77 80 82 82 81 82 85 94 101 103 102 108 110 113 121 133 135 137 137 140 147 156 146 132 345 320 324 322 326 326 329 326 323 321 322 321 320 316 312 308 305 306 309
79 75 76 81 82 86 85 78 82 81 90 100 106 123 139 148 160 163 177 195 210 226 265 279 290 304 310 319 320 320 320 318 318 317 319 318 315 312 307 305 303 304 304
75 77 74 76 77 72 68 65 57 76 122 131 149 176 182 203 215 229 235 244 253 266 279 287 297 304 311 313 313 312 315 314 313 316 317 316 312 310 307 305 303 302 301
75 73 60 47 36 22 7 350 305 282 250 233 226 226 237 244 251 257 257 264 269 273 276 283 292 300 303 305 308 312 312 310 312 313 314 312 310 307 304 303 301 300 298
86 76 27 355 344 325 307 285 278 272 272 272 265 261 266 275 275 268 268 270 272 274 275 283 293 297 299 300 303 304 304 306 310 311 311 310 309 306 303 299 299 296 295
261 262 270 278 281 289 294 285 279 280 285 285 285 287 287 286 281 281 280 278 280 282 284 290 294 294 295 296 298 300 302 304 307 308 309 310 309 305 302 298 297 296 297
297 279 271 270 270 271 275 278 279 282 287 289 294 297 298 298 296 293 286 281 278 280 281 285 289 293 293 293 295 297 299 302 304 305 306 306 305 303 301 299 296 296 297
295 296 297 298 292 282 275 271 263 268 266 271 284 293 298 300 294 289 285 280 275 278 282 285 289 289 291 292 293 296 300 302 301 303 303 303 302 301 300 299 299 298 298
284 285 285 284 282 281 279 276 275 273 271 280 295 297 300 298 295 291 284 278 277 278 282 286 287 288 289 292 296 299 301 301 302 303 302 302 301 299 298 298 297 298 299
286 285 282 280 278 277 276 276 276 275 270 283 285 286 287 286 284 282 277 277 278 277 278 280 284 288 291 295 299 301 302 303 304 303 302 301 301 298 297 297 297 297 298
288 288 286 283 280 279 279 278 276 276 272 270 272 274 275 277 279 280 279 279 281 283 284 285 289 292 296 299 302 303 302 303 304 303 301 300 298 295 296 297 297 297 299
297 294 292 290 287 283 281 280 276 273 273 274 276 278 282 283 283 283 281 282 283 284 287 289 292 296 298 299 298 297 297 299 299 298 297 296 296 296 296 297 298 301 302
300 298 295 293 290 289 288 286 283 280 277 278 280 282 283 286 288 291 292 292 290 290 290 291 292 294 295 295 296 297 298 300 300 298 299 299 298 298 299 299 300 300 300
307 305 302 297 294 291 290 291 290 288 286 287 288 288 287 287 288 289 290 291 292 292 294 296 298 299 300 301 302 304 306 307 305 303 302 300 300 300 299 299 300 300 300
306 307 305 303 299 297 294 292 290 290 289 289 290 292 293 294 296 298 300 302 302 303 303 304 305 308 309 309 307 306 305 305 304 304 302 301 301 301 300 300 300 300 300
314 315 314 314 314 313 312 311 310 310 309 309 309 308 307 306 306 307 307 308 309 311 311 311 311 310 310 309 307 304 303 302 302 302 300 301 301 300 300 300 301 301 303
317 320 323 326 327 325 322 319 316 315 315 316 317 318 318 318 318 318 317 318 318 317 317 316 315 315 315 314 314 313 312 309 308 306 304 305 304 303 304 304 304 304 303